Time[GMT],current_speed[cm/s](2m),current_direction[angular_degrees](2m),temperature[C](2m),current_u[cm/s](2m),current_v[cm/s](2m)
2004-10-06 14:00,33.73,187.3,12.18,-4.30,-33.45
2004-10-06 15:00,26.10,193.3,12.22,-6.01,-25.40
2004-10-06 17:00,1.47,133.5,12.31,1.06,-1.01
2004-10-06 18:00,6.16,60.8,12.34,5.37,3.01
2004-10-06 19:00,14.96,49.2,12.37,11.32,9.78
2004-10-06 21:00,24.05,122.6,12.34,20.25,-12.97
2004-10-06 23:00,27.86,169.0,12.22,5.29,-27.36
2004-10-07 00:00,29.92,176.1,12.15,2.05,-29.85
2004-10-07 01:00,30.50,168.7,12.12,5.98,-29.91
2004-10-07 02:00,,,,,
2004-10-07 04:00,14.96,210.2,12.18,-7.52,-12.93
2004-10-07 05:00,4.99,268.6,12.18,-4.98,-0.13
2004-10-07 06:00,3.81,328.0,12.15,-2.02,3.23
2004-10-07 07:00,8.80,318.8,12.15,-5.79,6.62
2004-10-07 08:00,13.79,305.8,12.12,-11.18,8.07
2004-10-07 09:00,16.72,298.1,12.15,-14.75,7.87
2004-10-07 10:00,6.16,282.6,12.12,-6.01,1.35
2004-10-07 11:00,7.04,183.5,12.03,-0.43,-7.03
2004-10-07 12:00,9.09,162.0,12.12,2.81,-8.65
2004-10-07 13:00,20.82,156.7,12.06,8.22,-19.13
2004-10-07 14:00,22.29,153.6,12.18,9.92,-19.96
2004-10-07 16:00,13.79,189.1,12.00,-2.18,-13.61
2004-10-07 19:00,14.96,6.6,12.47,1.72,14.86
2004-10-07 20:00,16.13,34.0,12.50,9.03,13.37
2004-10-07 21:00,7.92,16.8,12.50,2.29,7.58
2004-10-07 22:00,9.97,100.1,12.40,9.82,-1.75
2004-10-07 23:00,10.27,142.0,12.40,6.32,-8.09
2004-10-08 00:00,16.42,155.3,12.31,6.85,-14.93
2004-10-08 01:00,25.22,150.1,12.47,12.59,-21.86
2004-10-08 02:00,14.96,146.5,12.15,8.25,-12.48
2004-10-08 03:00,19.65,153.6,12.18,8.74,-17.60
2004-10-08 04:00,21.41,152.9,12.28,9.76,-19.06
2004-10-08 05:00,17.89,198.6,12.15,-5.70,-16.96
2004-10-08 06:00,3.81,312.9,12.15,-2.80,2.59
2004-10-08 07:00,6.16,326.6,12.15,-3.39,5.14
2004-10-08 08:00,14.08,4.1,12.12,1.02,14.04
2004-10-08 09:00,11.15,336.4,12.09,-4.46,10.21
2004-10-08 10:00,12.91,294.9,12.12,-11.70,5.44
2004-10-08 12:00,11.15,189.4,12.22,-1.83,-10.99
2004-10-08 14:00,14.66,161.7,12.18,4.61,-13.92
2004-10-08 15:00,18.77,133.2,12.25,13.69,-12.85
2004-10-08 17:00,13.49,103.7,12.34,13.11,-3.18
2004-10-08 18:00,13.49,63.9,12.37,12.12,5.93
2004-10-08 19:00,15.84,69.5,12.34,14.84,5.53
2004-10-08 20:00,14.96,41.4,12.34,9.90,11.22
2004-10-08 22:00,9.68,46.3,12.18,7.00,6.68
2004-10-08 23:00,1.76,184.5,12.18,-0.14,-1.75
2004-10-09 00:00,,,,,
2004-10-09 01:00,15.54,198.2,12.06,-4.86,-14.76
2004-10-09 02:00,22.58,181.0,12.22,-0.40,-22.58
2004-10-09 03:00,11.73,188.7,12.15,-1.78,-11.60
2004-10-09 04:00,7.92,146.9,12.22,4.32,-6.63
2004-10-09 05:00,9.39,132.1,12.12,6.96,-6.30
2004-10-09 06:00,12.03,39.0,12.03,7.56,9.35
2004-10-09 07:00,18.48,41.8,12.03,12.31,13.78
2004-10-09 08:00,24.05,30.5,12.03,12.21,20.72
2004-10-09 09:00,19.36,40.7,11.93,12.63,14.67
2004-10-09 10:00,17.01,55.1,11.93,13.96,9.73
2004-10-09 11:00,2.93,108.6,11.90,2.78,-0.93
2004-10-09 12:00,,,,,
2004-10-09 13:00,4.40,79.7,11.87,4.33,0.78
2004-10-09 15:00,14.37,147.2,11.90,7.77,-12.09
2004-10-09 17:00,13.49,103.3,12.03,13.13,-3.10
2004-10-09 18:00,9.39,76.6,12.03,9.13,2.18
2004-10-09 19:00,7.92,79.4,12.03,7.78,1.46
2004-10-09 20:00,18.18,31.9,12.03,9.62,15.43
2004-10-09 22:00,20.24,11.2,12.00,3.92,19.85
2004-10-09 23:00,13.20,0.3,11.93,0.06,13.20
2004-10-10 00:00,9.97,256.2,11.96,-9.69,-2.37
2004-10-10 01:00,8.51,202.4,11.93,-3.25,-7.86
2004-10-10 02:00,8.21,199.6,11.96,-2.76,-7.73
2004-10-10 03:00,12.61,175.0,11.93,1.09,-12.56
2004-10-10 05:00,12.61,100.5,11.87,12.40,-2.30
2004-10-10 07:00,8.51,49.9,11.84,6.50,5.48
2004-10-10 08:00,13.20,27.7,11.84,6.14,11.69
2004-10-10 09:00,23.17,28.4,11.84,11.02,20.38
2004-10-10 10:00,18.77,13.6,11.81,4.43,18.24
2004-10-10 11:00,4.11,354.7,11.78,-0.38,4.09
2004-10-10 12:00,4.99,228.8,11.78,-3.75,-3.28
2004-10-10 13:00,13.20,248.9,11.78,-12.31,-4.76
2004-10-10 16:00,17.30,198.9,11.90,-5.62,-16.37
2004-10-10 17:00,12.61,200.0,11.90,-4.31,-11.85
2004-10-10 18:00,5.87,230.2,11.87,-4.51,-3.75
2004-10-10 19:00,4.11,290.7,11.90,-3.84,1.45
2004-10-10 20:00,5.28,316.4,11.81,-3.64,3.82
2004-10-10 22:00,22.58,331.1,11.93,-10.90,19.78
2004-10-10 23:00,26.40,323.4,12.03,-15.74,21.19
2004-10-11 00:00,29.04,324.5,11.96,-16.88,23.63
2004-10-11 02:00,7.63,170.8,11.78,1.22,-7.53
2004-10-11 06:00,27.57,190.1,11.78,-4.86,-27.14
2004-10-11 07:00,0.00,342.7,,-0.00,0.00
2004-10-11 10:00,15.54,277.7,11.71,-15.41,2.08
2004-10-11 13:00,17.89,277.0,11.52,-17.76,2.18
2004-10-11 14:00,22.58,225.3,11.56,-16.05,-15.88
2004-10-11 15:00,27.57,196.5,11.52,-7.82,-26.44
2004-10-11 17:00,0.00,342.7,,-0.00,0.00
2004-10-11 22:00,28.16,183.8,11.84,-1.87,-28.09
2004-10-12 00:00,24.93,175.4,11.74,2.01,-24.85
2004-10-12 01:00,,,,,
2004-10-12 02:00,0.00,342.7,,-0.00,0.00
2004-10-12 05:00,71.27,167.6,11.81,15.25,-69.62
2004-10-12 07:00,,,,,
2004-10-12 11:00,0.00,342.7,,-0.00,0.00
2004-10-12 13:00,17.01,134.9,11.62,12.04,-12.02
2004-10-12 15:00,33.44,166.2,11.56,7.96,-32.48
2004-10-12 21:00,0.00,342.7,,-0.00,0.00
2004-10-12 22:00,53.38,174.0,11.74,5.61,-53.09
2004-10-12 23:00,34.90,176.1,11.68,2.39,-34.82
2004-10-13 04:00,67.17,173.6,11.65,7.46,-66.75
2004-10-13 07:00,43.99,168.3,11.59,8.89,-43.09
2004-10-13 08:00,52.79,159.6,11.62,18.44,-49.47
2004-10-13 09:00,46.05,168.3,11.65,9.30,-45.10
2004-10-13 11:00,20.82,162.0,11.59,6.43,-19.81
2004-10-13 12:00,,,,,
2004-10-13 13:00,11.44,130.7,11.59,8.67,-7.46
2004-10-13 14:00,24.93,178.5,11.62,0.63,-24.92
2004-10-13 16:00,0.00,342.7,,-0.00,0.00
2004-10-13 17:00,58.37,176.4,11.74,3.63,-58.25
2004-10-13 18:00,58.07,173.3,11.71,6.81,-57.67
2004-10-13 19:00,44.58,188.0,11.87,-6.23,-44.14
2004-10-13 20:00,23.46,199.6,11.90,-7.89,-22.10
2004-10-13 21:00,31.68,159.2,12.00,11.25,-29.61
2004-10-13 22:00,27.28,144.1,11.93,16.00,-22.09
2004-10-13 23:00,15.84,141.3,11.84,9.91,-12.36
2004-10-14 00:00,6.16,72.4,11.78,5.87,1.87
2004-10-14 01:00,0.00,342.7,,-0.00,0.00
2004-10-14 02:00,21.41,150.8,11.74,10.46,-18.68
2004-10-14 03:00,24.34,163.4,11.68,6.95,-23.33
2004-10-14 04:00,35.78,164.5,11.68,9.58,-34.48
2004-10-14 05:00,50.45,179.6,11.62,0.36,-50.45
2004-10-14 06:00,64.53,179.6,11.68,0.45,-64.52
2004-10-14 07:00,56.61,181.7,11.74,-1.68,-56.58
2004-10-14 08:00,41.36,192.3,11.59,-8.78,-40.41
2004-10-14 09:00,28.16,213.7,11.56,-15.62,-23.42
2004-10-14 10:00,0.00,342.7,,-0.00,0.00
2004-10-14 11:00,7.92,269.6,11.46,-7.92,-0.05
2004-10-14 12:00,12.32,343.1,11.40,-3.59,11.78
2004-10-14 13:00,24.34,34.0,11.43,13.62,20.17
2004-10-14 14:00,14.37,85.4,11.62,14.32,1.16
2004-10-14 15:00,26.98,139.5,11.68,17.52,-20.52
2004-10-14 16:00,32.85,161.7,11.74,10.33,-31.18
2004-10-14 17:00,41.94,169.0,11.65,7.97,-41.18
2004-10-14 18:00,60.13,169.4,11.93,11.06,-59.10
2004-10-14 19:00,63.94,180.7,11.78,-0.73,-63.94
2004-10-14 20:00,0.00,342.7,,-0.00,0.00
2004-10-14 22:00,18.48,166.2,11.93,4.40,-17.95
2004-10-14 23:00,14.96,171.5,11.84,2.21,-14.79
2004-10-15 00:00,6.45,255.9,11.90,-6.26,-1.57
2004-10-15 01:00,6.45,345.9,11.84,-1.58,6.26
2004-10-15 02:00,16.72,74.5,11.74,16.11,4.48
2004-10-15 03:00,,,,,
2004-10-15 04:00,31.38,168.7,11.81,6.15,-30.77
2004-10-15 05:00,36.66,180.7,11.71,-0.42,-36.66
2004-10-15 07:00,58.37,185.2,11.59,-5.31,-58.12
2004-10-15 09:00,36.08,196.1,11.46,-10.02,-34.66
2004-10-15 10:00,21.12,202.1,11.43,-7.94,-19.57
2004-10-15 11:00,10.27,216.2,11.40,-6.06,-8.29
2004-10-15 12:00,12.61,305.8,11.33,-10.23,7.38
2004-10-15 13:00,37.84,335.7,11.27,-15.57,34.49
2004-10-15 15:00,0.00,342.7,,-0.00,0.00
2004-10-15 16:00,21.41,159.2,11.37,7.60,-20.02
2004-10-15 17:00,49.86,174.0,11.62,5.24,-49.59
2004-10-15 20:00,62.77,193.7,11.43,-14.82,-60.99
2004-10-15 21:00,42.53,188.0,11.40,-5.94,-42.11
2004-10-15 22:00,23.17,191.6,11.40,-4.64,-22.70
2004-10-15 23:00,17.01,212.3,11.40,-9.09,-14.38
2004-10-16 00:00,0.00,342.7,,-0.00,0.00
2004-10-16 01:00,9.09,180.3,11.78,-0.05,-9.09
2004-10-16 02:00,0.29,241.1,11.52,-0.26,-0.14
2004-10-16 03:00,12.91,160.3,11.49,4.36,-12.15
2004-10-16 04:00,23.46,182.8,11.49,-1.13,-23.44
2004-10-16 08:00,53.67,200.0,11.46,-18.35,-50.44
2004-10-16 10:00,0.00,342.7,,-0.00,0.00
2004-10-16 11:00,4.99,29.1,11.37,2.43,4.36
2004-10-16 13:00,24.05,51.3,11.43,18.76,15.05
2004-10-16 14:00,32.26,56.9,11.52,27.02,17.62
2004-10-16 15:00,20.53,70.6,11.56,19.37,6.82
2004-10-16 16:00,22.00,131.1,11.59,16.58,-14.45
2004-10-16 17:00,14.96,140.2,11.59,9.57,-11.50
2004-10-16 18:00,28.16,164.5,11.62,7.54,-27.13
2004-10-16 19:00,0.00,342.7,,-0.00,0.00
2004-10-16 22:00,28.45,150.1,11.71,14.20,-24.65
2004-10-16 23:00,11.73,179.6,11.65,0.08,-11.73
2004-10-17 00:00,14.66,335.4,11.65,-6.12,13.33
2004-10-17 01:00,25.81,28.8,11.71,12.42,22.63
2004-10-17 03:00,31.68,14.0,11.43,7.66,30.74
2004-10-17 04:00,16.42,331.8,11.46,-7.75,14.48
2004-10-17 06:00,5.87,214.1,11.43,-3.28,-4.86
2004-10-17 07:00,23.76,213.3,11.46,-13.06,-19.85
2004-10-17 09:00,31.09,182.8,11.52,-1.50,-31.05
2004-10-17 10:00,10.85,174.0,11.46,1.14,-10.79
2004-10-17 11:00,19.94,83.6,11.43,19.82,2.22
2004-10-17 12:00,14.37,65.7,11.37,13.10,5.92
2004-10-17 13:00,26.98,18.2,11.40,8.43,25.63
2004-10-17 14:00,0.00,342.7,,-0.00,0.00
2004-10-17 15:00,31.68,26.3,11.40,14.03,28.40
2004-10-17 16:00,14.66,14.3,11.37,3.63,14.21
2004-10-17 18:00,6.75,182.8,11.40,-0.32,-6.74
2004-10-17 19:00,6.75,238.7,11.40,-5.76,-3.51
2004-10-17 20:00,14.08,171.9,11.40,1.99,-13.94
2004-10-17 23:00,0.00,342.7,,-0.00,0.00
2004-10-18 00:00,21.70,100.5,11.27,21.34,-3.95
2004-10-18 02:00,18.18,39.7,11.21,11.61,14.00
2004-10-18 03:00,21.41,17.5,11.24,6.44,20.42
2004-10-18 04:00,21.12,19.3,11.27,6.97,19.93
2004-10-18 06:00,6.45,236.9,11.24,-5.41,-3.52
2004-10-18 07:00,17.89,189.4,11.24,-2.93,-17.65
2004-10-18 08:00,26.98,188.0,11.21,-3.77,-26.72
2004-10-18 11:00,22.58,159.2,11.15,8.02,-21.11
2004-10-18 12:00,15.84,118.1,11.15,13.98,-7.45
2004-10-18 13:00,12.91,89.6,11.15,12.90,0.09
2004-10-18 14:00,3.52,172.2,11.21,0.48,-3.49
2004-10-18 15:00,15.25,15.8,11.21,4.14,14.68
2004-10-18 16:00,16.13,343.1,11.18,-4.70,15.43
2004-10-18 17:00,15.54,329.4,11.30,-7.92,13.38
2004-10-18 18:00,,234.4,,,
2004-10-18 20:00,9.39,200.3,11.37,-3.26,-8.80
2004-10-18 21:00,28.45,177.1,11.27,1.42,-28.41
2004-10-18 22:00,33.73,182.1,11.30,-1.21,-33.71
2004-10-18 23:00,26.40,169.8,11.30,4.70,-25.98
2004-10-19 00:00,21.70,162.0,11.24,6.70,-20.64
2004-10-19 01:00,19.65,213.0,11.37,-10.70,-16.48
2004-10-19 03:00,13.20,299.1,11.33,-11.53,6.43
2004-10-19 04:00,0.00,342.7,,-0.00,0.00
2004-10-19 05:00,20.82,318.8,11.21,-13.71,15.68
2004-10-19 06:00,15.84,295.6,11.18,-14.28,6.85
2004-10-19 07:00,11.73,201.4,11.15,-4.28,-10.92
2004-10-19 08:00,11.73,219.7,11.11,-7.49,-9.03
2004-10-19 09:00,25.52,183.8,11.15,-1.70,-25.46
2004-10-19 12:00,28.45,192.3,11.11,-6.04,-27.80
2004-10-19 13:00,,243.6,,,-967.70
2004-10-19 14:00,14.37,202.4,11.15,-5.49,-13.28
2004-10-19 15:00,8.51,287.2,11.18,-8.13,2.51
2004-10-19 16:00,13.79,288.9,11.18,-13.04,4.48
2004-10-19 17:00,26.10,334.3,11.27,-11.32,23.52
2004-10-19 18:00,17.60,326.2,11.18,-9.79,14.63
2004-10-19 19:00,16.13,346.2,11.15,-3.84,15.67
2004-10-19 20:00,4.69,174.3,11.18,0.46,-4.67
2004-10-19 21:00,23.76,182.4,11.15,-1.00,-23.74
2004-10-19 22:00,34.02,169.0,11.18,6.46,-33.40
2004-10-19 23:00,,243.6,,,-961.43
2004-10-20 00:00,32.56,172.6,11.21,4.21,-32.28
2004-10-20 01:00,29.04,178.5,11.18,0.74,-29.03
2004-10-20 02:00,19.94,174.7,11.21,1.85,-19.86
2004-10-20 03:00,12.91,221.1,11.18,-8.48,-9.73
2004-10-20 07:00,10.56,250.3,11.08,-9.94,-3.56
2004-10-20 11:00,,,,,
2004-10-20 16:00,13.20,209.1,11.18,-6.43,-11.53
2004-10-20 17:00,,,,,
2004-10-20 18:00,20.24,308.3,11.18,-15.89,12.54
2004-10-20 19:00,21.70,342.7,11.02,-6.45,20.72
2004-10-20 21:00,37.54,189.1,11.18,-5.93,-37.07
2004-10-20 22:00,43.41,183.1,11.08,-2.36,-43.34
2004-10-20 23:00,56.02,191.2,11.11,-10.88,-54.95
2004-10-21 01:00,43.70,182.8,11.11,-2.10,-43.65
2004-10-21 02:00,36.08,178.5,11.15,0.92,-36.06
2004-10-21 08:00,,,,,
2004-10-21 09:00,15.54,183.5,11.05,-0.94,-15.52
2004-10-21 10:00,26.98,166.6,11.05,6.26,-26.25
2004-10-21 12:00,0.00,342.7,,-0.00,0.00
2004-10-21 13:00,50.74,186.6,11.05,-5.86,-50.40
2004-10-21 14:00,45.75,190.1,11.11,-8.06,-45.04
2004-10-21 16:00,32.26,193.0,11.18,-7.23,-31.44
2004-10-21 17:00,20.24,189.1,11.21,-3.20,-19.98
2004-10-21 19:00,17.60,158.5,11.18,6.45,-16.37
2004-10-21 20:00,23.76,175.7,11.18,1.77,-23.69
2004-10-21 21:00,34.32,182.1,11.18,-1.23,-34.29
2004-10-21 23:00,51.03,184.5,11.15,-4.02,-50.88
2004-10-22 01:00,62.47,193.3,11.11,-14.38,-60.80
2004-10-22 02:00,54.85,183.1,11.11,-2.98,-54.77
2004-10-22 07:00,4.11,146.2,11.08,2.28,-3.41
2004-10-22 14:00,55.43,184.9,11.05,-4.71,-55.23
2004-10-22 17:00,,234.4,,,
2004-10-22 18:00,49.86,177.1,11.02,2.49,-49.80
2004-10-22 22:00,46.05,182.1,10.99,-1.65,-46.02
2004-10-23 04:00,67.75,173.6,10.96,7.53,-67.33
2004-10-23 05:00,,,,,
2004-10-23 08:00,41.36,185.9,10.83,-4.27,-41.13
2004-10-23 09:00,39.89,200.7,10.83,-14.09,-37.32
2004-10-23 12:00,49.27,179.6,10.86,0.35,-49.27
2004-10-23 16:00,53.09,173.3,10.74,6.22,-52.72
2004-10-23 17:00,67.17,163.1,10.89,19.56,-64.26
2004-10-23 20:00,34.90,182.1,10.86,-1.25,-34.88
2004-10-23 21:00,0.00,342.7,,-0.00,0.00
2004-10-23 22:00,32.56,176.1,10.77,2.23,-32.48
2004-10-23 23:00,32.26,167.6,10.74,6.91,-31.52
2004-10-24 06:00,0.00,342.7,,-0.00,0.00
2004-10-24 09:00,43.12,184.9,10.67,-3.66,-42.96
2004-10-24 12:00,34.32,179.2,10.61,0.45,-34.31
2004-10-24 13:00,43.99,189.1,10.61,-6.95,-43.44
2004-10-24 14:00,40.77,194.4,10.51,-10.11,-39.49
2004-10-24 15:00,46.93,183.5,10.55,-2.84,-46.84
2004-10-24 16:00,,,,,
2004-10-24 18:00,75.96,170.1,10.64,13.06,-74.83
2004-10-24 20:00,51.62,179.9,10.70,0.05,-51.62
2004-10-24 21:00,38.13,194.4,10.70,-9.46,-36.94
2004-10-24 22:00,30.21,203.9,10.67,-12.22,-27.63
2004-10-25 01:00,47.81,190.1,10.67,-8.42,-47.06
2004-10-25 03:00,47.51,182.1,10.61,-1.71,-47.48
2004-10-25 06:00,42.82,181.7,10.64,-1.27,-42.80
2004-10-25 08:00,48.10,173.6,10.55,5.35,-47.80
2004-10-25 09:00,42.53,174.7,10.58,3.95,-42.34
2004-10-25 10:00,32.85,181.0,10.58,-0.57,-32.84
2004-10-25 11:00,,234.4,,,
2004-10-25 12:00,31.68,200.0,10.58,-10.83,-29.77
2004-10-25 13:00,43.12,197.5,10.55,-12.98,-41.11
2004-10-25 17:00,64.23,177.8,10.61,2.42,-64.19
2004-10-25 18:00,51.91,190.8,10.70,-9.77,-50.99
2004-10-25 19:00,38.13,203.2,10.67,-14.99,-35.06
2004-10-25 20:00,,,,,
2004-10-25 21:00,23.76,160.6,10.64,7.89,-22.41
2004-10-25 22:00,17.89,156.0,10.64,7.27,-16.35
2004-10-25 23:00,21.41,156.4,10.61,8.58,-19.62
2004-10-26 00:00,18.77,178.5,10.64,0.48,-18.77
2004-10-26 01:00,30.80,180.3,10.64,-0.16,-30.80
2004-10-26 03:00,60.13,184.9,10.64,-5.10,-59.91
2004-10-26 04:00,72.15,180.3,10.64,-0.38,-72.15
2004-10-26 05:00,,243.6,,,951.39
2004-10-26 07:00,48.39,191.2,10.61,-9.40,-47.47
2004-10-26 08:00,30.21,178.2,10.61,0.95,-30.19
2004-10-26 09:00,23.46,177.5,10.61,1.03,-23.44
2004-10-26 10:00,13.79,185.9,10.61,-1.42,-13.71
2004-10-26 11:00,25.22,154.3,10.55,10.95,-22.72
2004-10-26 14:00,48.69,178.2,10.55,1.54,-48.66
2004-10-26 17:00,73.32,183.1,10.67,-3.98,-73.22
2004-10-26 19:00,47.81,179.9,10.70,0.04,-47.81
2004-10-26 20:00,31.09,172.2,10.70,4.21,-30.80
2004-10-26 21:00,22.00,163.1,10.67,6.41,-21.04
2004-10-26 22:00,23.46,168.7,10.70,4.60,-23.01
2004-10-26 23:00,15.84,139.9,10.67,10.21,-12.11
2004-10-27 00:00,0.00,342.7,,-0.00,0.00
2004-10-27 01:00,15.54,158.5,10.70,5.70,-14.46
2004-10-27 02:00,31.68,159.2,10.64,11.25,-29.61
2004-10-27 05:00,70.10,182.1,10.51,-2.52,-70.05
2004-10-27 08:00,49.27,169.0,10.58,9.36,-48.38
2004-10-27 09:00,37.54,166.2,10.58,8.93,-36.46
2004-10-27 10:00,31.09,168.3,10.58,6.28,-30.45
2004-10-27 11:00,22.88,190.8,10.51,-4.31,-22.47
2004-10-27 12:00,16.42,179.6,10.51,0.12,-16.42
2004-10-27 15:00,53.67,177.5,10.51,2.35,-53.62
2004-10-27 17:00,65.99,171.9,10.55,9.34,-65.33
2004-10-27 18:00,46.63,180.7,10.36,-0.53,-46.63
2004-10-27 19:00,63.94,184.5,10.77,-5.04,-63.74
2004-10-27 21:00,52.50,168.0,10.61,10.92,-51.35
2004-10-27 23:00,37.84,170.8,10.51,6.05,-37.35
2004-10-28 08:00,52.50,173.6,10.39,5.84,-52.18
2004-10-28 11:00,39.60,169.8,10.39,7.04,-38.96
2004-10-28 14:00,,,,,
2004-10-28 16:00,47.51,182.4,10.39,-2.00,-47.47
2004-10-28 19:00,58.66,172.9,10.39,7.23,-58.21
2004-10-28 20:00,46.93,181.4,10.36,-1.11,-46.91
2004-10-28 21:00,32.85,172.9,10.33,4.05,-32.60
2004-10-28 22:00,49.57,167.3,10.42,10.91,-48.35
2004-10-28 23:00,38.72,163.4,10.42,11.05,-37.11
2004-10-29 00:00,24.93,157.1,10.39,9.70,-22.96
2004-10-29 01:00,13.20,133.5,10.42,9.57,-9.09
2004-10-29 02:00,12.03,154.3,10.36,5.22,-10.83
2004-10-29 03:00,22.58,182.8,10.33,-1.09,-22.56
2004-10-29 04:00,39.89,180.7,10.29,-0.45,-39.89
2004-10-29 05:00,47.81,178.5,10.23,1.22,-47.79
2004-10-29 06:00,61.30,174.0,10.14,6.44,-60.96
2004-10-29 07:00,61.30,178.9,10.26,1.18,-61.29
2004-10-29 08:00,56.02,181.4,10.26,-1.32,-56.00
2004-10-29 09:00,47.81,175.4,10.26,3.85,-47.65
2004-10-29 10:00,35.78,165.9,10.23,8.73,-34.70
2004-10-29 11:00,29.92,171.2,10.23,4.60,-29.56
2004-10-29 12:00,23.17,175.0,10.14,2.01,-23.08
2004-10-29 13:00,11.73,188.7,10.20,-1.78,-11.60
2004-10-29 14:00,14.96,172.9,10.23,1.84,-14.84
2004-10-29 15:00,26.98,181.7,10.29,-0.80,-26.97
2004-10-29 17:00,49.86,184.9,10.39,-4.23,-49.68
2004-10-29 18:00,49.86,179.6,10.39,0.35,-49.86
2004-10-29 19:00,55.73,175.7,10.45,4.15,-55.57
2004-10-29 20:00,49.57,179.2,10.36,0.65,-49.56
2004-10-29 21:00,37.54,180.3,10.33,-0.20,-37.54
2004-10-29 22:00,36.66,157.4,10.36,14.06,-33.86
2004-10-29 23:00,33.44,152.5,10.39,15.43,-29.66
2004-10-30 00:00,17.89,177.8,10.33,0.67,-17.88
2004-10-30 01:00,14.96,150.1,10.26,7.47,-12.96
2004-10-30 02:00,7.63,155.7,10.33,3.14,-6.95
2004-10-30 03:00,17.60,117.4,10.39,15.63,-8.09
2004-10-30 04:00,20.53,139.5,10.26,13.33,-15.62
2004-10-30 05:00,34.90,161.7,10.17,10.98,-33.13
2004-10-30 07:00,56.02,181.0,10.29,-0.98,-56.01
2004-10-30 08:00,53.09,186.6,10.36,-6.13,-52.73
2004-10-30 09:00,44.58,187.3,10.23,-5.69,-44.22
2004-10-30 10:00,28.45,202.1,10.26,-10.70,-26.36
2004-10-30 11:00,,,,,
2004-10-30 13:00,1.76,318.5,10.26,-1.17,1.32
2004-10-30 14:00,12.03,350.4,10.33,-2.00,11.86
2004-10-30 15:00,16.13,53.7,10.36,13.00,9.54
2004-10-30 17:00,,,,,
2004-10-30 20:00,45.46,175.7,10.33,3.39,-45.34
2004-10-30 22:00,,,,,
2004-10-31 01:00,15.84,28.8,10.26,7.62,13.88
2004-10-31 02:00,21.41,25.6,10.26,9.25,19.31
2004-10-31 03:00,23.76,28.4,10.20,11.30,20.90
2004-10-31 04:00,12.91,29.1,10.17,6.28,11.27
2004-10-31 06:00,12.03,74.8,10.20,11.61,3.15
2004-10-31 07:00,15.84,107.5,10.10,15.10,-4.77
2004-10-31 08:00,24.64,149.4,10.17,12.56,-21.20
2004-10-31 09:00,30.21,163.4,10.29,8.62,-28.95
2004-10-31 11:00,12.61,133.5,10.26,9.14,-8.69
2004-10-31 12:00,3.52,21.7,10.26,1.30,3.27
2004-10-31 13:00,15.25,30.5,10.29,7.74,13.14
2004-10-31 14:00,24.64,24.9,10.26,10.37,22.35
2004-10-31 16:00,15.25,33.3,10.23,8.38,12.74
2004-10-31 17:00,2.35,257.3,10.20,-2.29,-0.52
2004-10-31 18:00,6.45,236.2,10.26,-5.36,-3.59
2004-10-31 21:00,41.94,183.1,10.55,-2.28,-41.88
2004-10-31 22:00,31.09,206.3,10.42,-13.78,-27.87
2004-10-31 23:00,16.42,191.9,10.55,-3.39,-16.07
2004-11-01 00:00,7.63,210.2,10.48,-3.83,-6.59
2004-11-01 01:00,7.63,281.2,10.42,-7.48,1.48
2004-11-01 02:00,15.25,21.0,10.42,5.47,14.24
2004-11-01 03:00,19.94,9.4,10.36,3.26,19.68
2004-11-01 04:00,15.25,355.0,10.23,-1.33,15.19
2004-11-01 05:00,10.85,64.3,10.26,9.78,4.71
2004-11-01 06:00,6.45,218.6,10.23,-4.03,-5.04
2004-11-01 07:00,14.08,148.0,10.20,7.47,-11.93
2004-11-01 08:00,26.10,180.7,10.33,-0.30,-26.10
2004-11-01 11:00,25.81,181.7,10.23,-0.77,-25.80
2004-11-01 12:00,0.00,342.7,,-0.00,0.00
2004-11-01 14:00,13.20,225.0,10.26,-9.32,-9.34
2004-11-01 15:00,16.42,264.3,10.29,-16.34,-1.62
2004-11-01 16:00,9.68,281.9,10.23,-9.47,2.00
2004-11-01 17:00,12.32,229.9,10.20,-9.42,-7.94
2004-11-01 23:00,34.32,171.9,10.20,4.86,-33.97
2004-11-02 03:00,5.28,191.2,10.17,-1.03,-5.18
2004-11-02 05:00,2.64,176.4,10.07,0.16,-2.63
2004-11-02 11:00,35.49,168.0,10.01,7.38,-34.71
2004-11-02 17:00,12.32,169.8,10.20,2.19,-12.12
2004-11-02 18:00,16.13,169.0,10.10,3.06,-15.84
2004-11-02 19:00,24.05,187.7,10.20,-3.22,-23.83
2004-11-02 20:00,28.45,177.1,10.14,1.42,-28.41
2004-11-02 21:00,39.60,190.1,10.17,-6.97,-38.98
2004-11-02 23:00,31.97,174.3,10.10,3.16,-31.81
2004-11-03 00:00,23.76,166.2,10.10,5.65,-23.08
2004-11-03 02:00,2.93,213.3,10.10,-1.61,-2.45
2004-11-03 03:00,4.99,359.6,10.10,-0.04,4.99
2004-11-03 05:00,21.70,11.5,10.07,4.34,21.27
2004-11-03 08:00,12.32,112.1,10.04,11.41,-4.63
2004-11-03 10:00,33.44,153.2,10.07,15.06,-29.85
2004-11-03 11:00,36.37,157.1,10.07,14.16,-33.50
2004-11-03 16:00,13.49,199.6,10.04,-4.53,-12.71
2004-11-03 17:00,18.18,196.5,10.01,-5.16,-17.44
2004-11-03 21:00,28.74,172.9,9.95,3.54,-28.52
2004-11-04 02:00,20.24,186.3,9.85,-2.21,-20.12
2004-11-04 04:00,2.35,209.1,9.82,-1.14,-2.05
2004-11-04 05:00,11.73,29.1,9.76,5.71,10.25
2004-11-04 06:00,20.24,355.4,9.79,-1.64,20.17
2004-11-04 09:00,7.04,137.4,9.82,4.76,-5.18
2004-11-04 10:00,19.65,176.8,9.79,1.10,-19.62
2004-11-04 11:00,30.50,176.8,9.76,1.71,-30.46
2004-11-04 12:00,39.89,185.2,9.72,-3.63,-39.72
2004-11-04 13:00,27.86,185.6,9.79,-2.71,-27.73
2004-11-04 14:00,20.82,187.3,9.82,-2.66,-20.65
2004-11-04 15:00,15.84,229.2,9.85,-11.98,-10.35
2004-11-04 16:00,,,,,
2004-11-04 17:00,23.46,288.6,9.85,-22.24,7.48
2004-11-04 18:00,24.05,290.4,9.95,-22.55,8.36
2004-11-04 19:00,19.94,311.8,9.85,-14.87,13.29
2004-11-04 20:00,14.08,3.1,9.72,0.76,14.06
2004-11-04 21:00,2.64,68.8,9.69,2.46,0.95
2004-11-04 22:00,14.37,148.7,9.72,7.48,-12.27
2004-11-05 00:00,26.10,181.7,9.85,-0.78,-26.09
2004-11-05 03:00,4.99,16.1,9.79,1.38,4.79
2004-11-05 04:00,4.99,356.1,9.79,-0.34,4.97
2004-11-05 08:00,,,,,
2004-11-05 09:00,9.68,250.6,9.72,-9.13,-3.21
2004-11-05 10:00,10.56,207.0,9.72,-4.80,-9.41
2004-11-05 11:00,,243.6,,,-965.48
2004-11-05 12:00,39.01,174.3,9.69,3.86,-38.82
2004-11-05 13:00,38.72,164.5,9.69,10.36,-37.30
2004-11-05 14:00,22.88,167.6,9.72,4.90,-22.35
2004-11-05 15:00,14.08,111.0,9.76,13.14,-5.05
2004-11-05 18:00,11.73,70.6,9.72,11.07,3.90
2004-11-05 19:00,10.85,46.7,9.72,7.90,7.44
2004-11-05 22:00,19.65,147.6,9.69,10.53,-16.59
2004-11-05 23:00,21.12,147.6,9.66,11.32,-17.83
2004-11-06 00:00,26.69,134.2,9.63,19.12,-18.62
2004-11-06 01:00,25.22,161.3,9.63,8.08,-23.89
2004-11-06 02:00,21.70,152.9,9.63,9.90,-19.32
2004-11-06 03:00,12.91,150.4,9.60,6.37,-11.22
2004-11-06 04:00,3.52,154.6,9.60,1.51,-3.18
2004-11-06 06:00,,234.4,,,
2004-11-06 07:00,13.79,346.6,9.53,-3.20,13.41
2004-11-06 08:00,19.36,357.1,9.53,-0.97,19.33
2004-11-06 09:00,10.27,356.8,9.50,-0.58,10.25
2004-11-06 10:00,1.76,86.8,9.50,1.76,0.10
2004-11-06 11:00,7.33,124.4,9.50,6.05,-4.14
2004-11-06 12:00,11.15,164.1,9.47,3.05,-10.72
2004-11-06 15:00,,234.4,,,
2004-11-06 16:00,12.32,60.8,9.53,10.75,6.02
2004-11-06 17:00,15.54,49.5,9.57,11.82,10.09
2004-11-06 19:00,16.72,21.0,9.53,6.00,15.61
2004-11-06 22:00,11.44,79.4,9.53,11.24,2.11
2004-11-06 23:00,16.42,92.0,9.50,16.41,-0.59
2004-11-07 00:00,,243.6,,,-955.96
2004-11-07 01:00,17.89,138.5,9.50,11.86,-13.39
2004-11-07 02:00,18.18,130.0,9.47,13.93,-11.69
2004-11-07 03:00,20.53,123.3,9.50,17.15,-11.28
2004-11-07 04:00,11.73,92.0,9.50,11.72,-0.42
2004-11-07 05:00,11.44,106.5,9.50,10.97,-3.24
2004-11-07 07:00,6.75,355.0,9.47,-0.59,6.72
2004-11-07 08:00,14.37,341.3,9.47,-4.60,13.62
2004-11-07 09:00,9.68,329.0,9.47,-4.98,8.30
2004-11-07 10:00,,,,,
2004-11-07 11:00,10.56,271.7,9.47,-10.55,0.32
2004-11-07 13:00,17.89,221.8,9.50,-11.92,-13.34
2004-11-07 14:00,22.00,209.5,9.50,-10.83,-19.15
2004-11-07 16:00,9.68,231.3,9.53,-7.55,-6.05
2004-11-07 18:00,17.89,355.4,9.57,-1.45,17.83
2004-11-07 19:00,,243.6,,,-964.17
2004-11-07 20:00,26.69,7.0,9.53,3.23,26.49
2004-11-07 21:00,21.12,15.8,9.50,5.73,20.32
2004-11-07 23:00,8.80,343.4,9.47,-2.51,8.43